Regional Weather Roundup
Issued by NWS Huntsville, AL

Home | Current Version | Previous Version | Text Only | Print | Product List | Glossary On
Versions: 1 2 3 4 5 6 7 8 9 10 11 12 13 14 15 16 17 18 19 20 21 22 23 24 25 26 27 28 29 30 31 32 33 34 35 36 37 38 39 40 41 42 43 44 45 46 47 48 49 50
000
ASUS44 KHUN 181110
RWRHUN

WEATHER ROUNDUP FOR THE TENNESSEE VALLEY
NATIONAL WEATHER SERVICE HUNTSVILLE AL
600 AM CDT THU SEP 18 2014

ALZ001>004-181200-
NORTHWEST ALABAMA

CITY           SKY/WX    TMP DP  RH WIND       PRES   REMARKS
COURTLAND HCN    N/A     61 N/A N/A CALM        N/A
RUSSELLVILLE     N/A     57 N/A N/A MISG        N/A
SHOALS AIRPORT PTCLDY    62  58  86 CALM      29.97R
SHOALS TVA RES   N/A     63 N/A N/A MISG        N/A
$$

ALZ005>007-016-181200-
NORTH CENTRAL ALABAMA

CITY           SKY/WX    TMP DP  RH WIND       PRES   REMARKS
CULLMAN AG STN   N/A     61 N/A N/A CALM        N/A
DECATUR AP     CLOUDY    63  61  93 N5        29.98R
HUNTSVILLE AP  LGT RAIN  65  61  87 E5        29.96S FOG
HUN NWS/UAH      N/A     64  60  88 N3          N/A
MERIDIANVILLE  MOCLDY    61  55  82 CALM      29.98R FOG
VINEMONT AP    FAIR      57  56  94 CALM      29.99R
$$

ALZ008>010-181200-
NORTHEAST ALABAMA

CITY           SKY/WX    TMP DP  RH WIND       PRES   REMARKS
ALBERTVILLE    CLOUDY    61  61 100 E3        29.97R
FORT PAYNE     MOCLDY    59  55  88 CALM      29.98R
SCOTTSBORO AP    N/A     61  59  94 CALM      29.99R
SCOTTSBORO HCN   N/A     61 N/A N/A MISG        N/A
VALLEY HEAD      N/A     57 N/A N/A MISG        N/A
$$

TNZ076-096-097-181200-
SOUTHEASTERN MIDDLE TENNESSEE

CITY           SKY/WX    TMP DP  RH WIND       PRES   REMARKS
FAYETTEVILLE   PTCLDY    57  55  94 CALM      30.00R
TULLAHOMA      MOCLDY    57  55  94 CALM      30.00R
WINCHESTER     PTCLDY    54  54 100 CALM      29.99R
$$

...SURROUNDING SITES...

CITY           SKY/WX    TMP DP  RH WIND       PRES   REMARKS
ATLANTA        MOCLDY    63  59  88 CALM      29.97R
ANNISTON       CLOUDY    62  59  90 E5        29.96S
BIRMINGHAM     CLOUDY    63  57  81 CALM      29.97R
CHATTANOOGA    PTCLDY    61  57  87 CALM      29.99R
CORINTH        CLOUDY    61  59  94 CALM      29.95R
DALTON         CLOUDY    59  59 100 CALM      29.98S
GADSDEN        CLOUDY    61  55  82 CALM      29.97R
GOLDEN TRNGL   PTCLDY    64  61  88 CALM      29.94R
HALEYVILLE     FAIR      60  58  93 CALM      29.99R
JACKSON TN     CLOUDY    64  61  90 NE5       29.96R
LEWISBURG      MOCLDY    56  55  96 CALM      29.98S
MEMPHIS        CLOUDY    67  63  87 E6        29.92F
MURFREESBORO   MOCLDY    59  57  92 CALM      29.98S
NASHVILLE      MOCLDY    61  57  87 CALM      29.99R
OXFORD MS      FAIR      66  64  94 E3        29.95R
ROME           PTCLDY    59  57  93 CALM      29.98R
SAVANNAH       MOCLDY    63  63 100 CALM      29.96S
TUPELO         MOCLDY    66  63  90 NE3       29.94R
TUSCALOOSA     PTCLDY    65  62  90 CALM      29.94R
$$

...GULF COAST WEATHER...

CITY           SKY/WX    TMP DP  RH WIND       PRES   REMARKS
GULFPORT       PTCLDY    73  71  93 CALM      29.90R
PASCAGOULA     CLEAR     70  69  97 S3        29.91R FOG
MOBILE         PTCLDY    71  70  96 NE3       29.92R
GULF SHORES    SUNNY     73  72  96 N3        29.90S
PENSACOLA      PTCLDY    74  73  97 N5        29.89S
DESTIN         PTCLDY    77  71  82 N7        29.90R
PANAMA CITY    CLEAR     75  75 100 N6        29.90R
APPALACHICOLA  CLEAR     73  69  87 CALM      29.90R
$$



USA.gov is the U.S. government's official web portal to all federal, state and local government web resources and services.